Regional Weather Roundup
Issued by NWS

Home | Current Version | Previous Version | Graphics & Text | Print | Product List | Glossary On
Versions: 1 2 3 4 5 6 7 8 9 10 11 12 13 14 15 16 17 18 19 20 21 22 23 24 25 26 27 28 29 30 31 32 33 34 35 36 37 38 39 40 41 42 43 44 45 46 47 48 49 50
000
ASUS43 KLMK 271910
RWRKY
KENTUCKY REGIONAL WEATHER ROUNDUP
NATIONAL WEATHER SERVICE LOUISVILLE KY
300 PM EDT THU AUG 27 2015

NOTE "FAIR" INDICATES FEW OR NO CLOUDS BELOW 12,000 FEET
WITH NO SIGNIFICANT WEATHER AND/OR OBSTRUCTIONS TO VISIBILITY.

KYZ001>023-026-027-061>063-070>075-272000-
WESTERN AND SOUTH CENTRAL KENTUCKY

CITY           SKY/WX    TMP DP  RH WIND       PRES   REMARKS
PADUCAH        CLOUDY    79  57  46 NE7       30.14R
HENDERSON      CLOUDY    79  55  44 NE5       30.12R
OWENSBORO      MOSUNNY   79  58  48 SE8       30.13R
HOPKINSVILLE   SUNNY     81  56  42 VRB3      30.10S
BOWLING GREEN  MOSUNNY   81  55  40 NE10G20   30.11F
GLASGOW        MOSUNNY   79  55  43 NE9       30.11F
$$

KYZ024-025-028>034-038-045-046-053-272000-
NORTH CENTRAL KENTUCKY

CITY           SKY/WX    TMP DP  RH WIND       PRES   REMARKS
LOUISVILLE/SDF PTSUNNY   78  54  43 E10       30.12F
LOUISVILLE/LOU PTSUNNY   79  54  41 E10       30.13F
FORT KNOX      MOSUNNY   77  57  49 NE9       30.11F
$$

KYZ035>037-039>044-047>052-055>060-089>105-272000-
NORTHEAST KENTUCKY

CITY           SKY/WX    TMP DP  RH WIND       PRES   REMARKS
LEXINGTON      PTSUNNY   78  53  41 E13G18    30.14F
COVINGTON      CLOUDY    74  55  51 VRB6      30.15F
FRANKFORT      PTSUNNY   74  53  48 NE9       30.14F
$$

KYZ054-064>069-076>088-106>120-272000-
SOUTHEAST KENTUCKY

CITY           SKY/WX    TMP DP  RH WIND       PRES   REMARKS
JACKSON        MOSUNNY   73  55  53 CALM      30.16F
LONDON         SUNNY     77  51  40 N7        30.14F
SOMERSET       SUNNY     75  52  43 E6        30.13F
MIDDLESBORO    MOSUNNY   79  60  52 N8        30.12F
MONTICELLO     CLEAR     78  57  48 E10       30.14F
$$




USA.gov is the U.S. government's official web portal to all federal, state and local government web resources and services.